Main page
METAR-TAF:

METAR-TAF

Airports :

Algeciras Heliport

Algeciras, Spain

latitude: 36-07-44N, longitude: 05-26-28W, elevation: 30 m

Current weather observation

The report was made 33 minutes ago, at 10:00 UTC
Wind 9 kt from variable directions
Temperature 21°C
Humidity 56%
Pressure 1012 hPa
Visibility 10 km or more
Broken clouds at a height of 3300 ft

METAR: LEAG 091000Z AUTO VRB09KT 9999 BKN033 21/12 Q1012

Time: 12:33 (10:33 UTC)


TAF: missing

Weather observations and forecasts of more than 4000 airports (METAR and TAF reports).

The available stations are represented by yellow and red dots on the map.

Hover mouse over dot to see the name of the station.

Then click to see weather observations and forecasts.

To change the map : click on the green buttons with a black cross to zoom in, on the green button with a dash to zoom out, or on the green arrows for adjacent maps.


METAR-TAF: